Find Starlink 32580

NORAD ID: 62075 Int'l Des: 2024-217 Owner: SPXS Country: US Constellation: starlink operational
LEOCIRCULAR

Current View

Loading 3D Globe...

About Starlink 32580

Starlink 32580 (NORAD 62075) is a starlink constellation satellite (v2 mini) launched Nov 24, 2024 by SPXS of US. It operates in LEO, CIRCULAR orbit with a mass of 730.00 kg.

About Starlink 32580

Description loading...

Upcoming Passes

Passes for default location (London). Set your location on the main map for personalized predictions.

Altitude History

Loading altitude history...

Two-Line Element Set

1 62075U 24217U 26168.06492257 .00014528 00000-0 50152-3 0 9990
2 62075 53.1591 79.7076 0001235 90.6075 269.5067 15.30210089 88819
Epoch: Jun 17, 2026 • Age: 23 hours

Current Status

Altitude 493.6 km
Velocity 7.62 km/s
Sub-Earth Point -51.00°S, 90.88°E
Launch Date Nov 24, 2024
Age 1.5 years
Type internet

Technical Details

Classification Payload
Mass 730.00 kg
Dry Mass 700.00 kg
Total Mass 730.00 kg
Length 0.30 m
Diameter 4.10 m
Span 29.00 m
Shape Box + pan
Manufacturer SPXS
Bus Type Starlink V2M
Phase Status In Orbit
Owner/State SPXS/US

Most Searched